Wind_Speed
18 19 20 21 23 24 25 27 28 28 28 28 28 29 29 30 31 32 34 35 37 38 39 40 41 42 44 46 46 47 48 48 48 47 46 44 44 43 42 39 37 36 34 33
18 19 20 21 22 24 25 26 26 26 26 27 27 28 28 29 30 31 33 34 35 37 38 39 39 41 42 44 45 45 46 48 49 49 49 48 47 47 45 43 40 37 35 35
16 17 19 20 22 23 23 24 24 25 25 25 27 28 27 28 29 31 32 32 32 33 35 37 37 38 39 40 40 42 43 45 46 48 48 48 48 48 46 44 42 39 35 33
15 16 18 20 21 21 21 22 24 25 25 25 25 28 27 28 29 29 29 29 30 31 32 33 33 33 35 36 36 37 39 41 43 44 45 45 45 45 45 45 42 40 38 36
13 15 17 18 18 19 20 22 22 22 23 23 23 25 26 25 26 26 26 27 27 28 28 27 27 28 28 29 31 32 35 37 39 40 41 42 42 42 42 42 41 39 38 37
13 14 14 16 17 18 19 19 19 19 20 21 21 21 22 21 21 21 22 22 22 23 24 24 23 22 22 23 25 26 28 30 32 33 35 36 37 38 38 38 38 37 36 36
11 11 13 14 16 16 17 17 18 19 19 18 18 18 17 16 17 17 18 18 18 19 19 18 17 17 17 17 17 19 20 21 23 25 27 29 31 31 32 33 34 34 34 33
9 10 13 14 15 16 15 16 17 17 18 17 16 15 15 15 15 16 16 17 16 16 16 15 15 14 14 12 12 12 12 13 14 16 18 20 23 25 25 27 29 29 30 31
9 11 13 14 15 15 14 14 15 15 15 14 14 14 14 14 15 15 16 17 16 15 14 13 14 13 12 10 9 9 9 8 8 10 12 13 17 18 19 21 24 26 28 28
9 11 13 14 14 15 15 15 15 15 14 14 13 13 13 14 14 15 16 16 16 14 14 14 15 14 12 11 10 9 8 6 4 4 5 7 10 13 14 15 18 21 24 25
10 12 13 14 15 16 16 15 15 15 15 13 13 13 12 13 13 14 15 16 16 15 15 15 16 16 14 13 12 11 11 10 7 5 1 2 4 7 10 11 14 17 19 21
11 13 14 15 16 16 16 16 16 16 16 14 13 13 13 13 14 15 16 16 16 16 16 17 17 18 18 16 15 15 14 12 12 11 8 5 2 2 4 6 8 11 14 17
13 13 14 15 17 17 17 17 17 16 16 15 15 14 14 15 16 16 17 17 17 17 18 19 19 19 19 19 19 18 17 16 15 13 11 8 6 3 1 2 4 6 9 11
14 14 15 16 17 17 17 17 17 17 17 16 16 15 15 16 17 18 18 19 19 19 20 20 20 20 20 20 19 18 18 17 16 15 14 12 10 8 7 4 2 1 2 5
14 15 16 16 16 17 17 17 17 17 17 16 16 16 16 17 18 19 19 19 20 21 21 21 21 21 21 20 20 19 18 18 17 16 15 14 13 12 10 8 6 4 3 2
14 15 16 16 16 16 17 17 17 17 17 16 16 16 16 17 18 19 20 20 20 21 21 21 21 21 21 21 21 20 20 19 19 18 17 17 16 14 13 11 9 8 7 6
13 14 16 16 16 15 16 16 16 16 16 15 16 16 16 17 17 18 19 19 20 20 20 20 21 21 21 21 21 21 21 20 19 19 18 18 17 16 15 14 13 11 10 9
11 13 15 15 16 15 15 15 15 15 15 14 14 15 15 16 16 17 17 18 19 19 20 20 20 20 21 21 21 21 21 20 20 20 20 20 19 18 17 16 16 15 13 12
9 11 12 14 15 15 14 13 13 14 14 13 13 13 14 14 15 16 16 16 17 17 18 19 19 20 20 21 21 21 21 21 20 20 19 19 19 18 18 18 17 16 15 15
7 8 10 12 13 14 13 13 12 12 13 13 12 12 12 13 14 14 15 15 16 16 16 16 17 18 19 19 20 20 20 20 20 20 19 19 19 19 19 19 18 17 17 16
5 6 8 9 10 12 12 12 12 11 11 11 12 12 11 11 12 12 13 13 14 14 14 15 15 16 17 18 18 19 19 20 20 19 19 19 19 19 19 19 19 18 18 17
4 5 6 7 8 9 10 11 11 10 10 10 10 10 11 11 11 11 12 12 12 13 13 14 14 15 15 16 17 18 19 19 20 19 19 19 20 20 20 20 20 19 19 19
5 5 5 5 6 7 8 8 9 9 9 9 8 8 8 9 9 9 10 10 11 11 12 12 13 13 14 15 16 17 18 19 20 20 19 19 20 20 20 21 21 21 20 20
8 7 6 6 6 6 6 6 7 7 7 7 7 7 7 7 8 8 8 9 9 10 11 11 12 12 13 14 14 15 17 18 19 20 20 20 20 20 21 21 21 21 22 22
10 9 8 8 7 7 6 6 6 6 6 6 6 6 6 6 7 7 8 8 9 9 9 10 11 11 12 12 13 14 15 17 18 19 20 20 20 20 20 21 21 21 22 23
13 12 11 10 9 9 8 8 7 7 6 6 6 6 6 6 6 6 7 8 8 8 9 9 10 10 10 11 11 12 14 15 16 18 19 20 20 20 20 21 21 21 21 22
Wind_Direction
262 270 276 282 286 288 290 291 292 293 293 292 291 290 290 289 288 286 284 282 281 279 277 275 274 272 270 267 264 261 260 260 258 257 257 257 257 257 258 257 255 256 254 253
267 275 282 287 290 292 293 294 294 295 295 294 293 292 292 293 291 289 288 287 285 283 281 280 278 276 273 271 268 265 263 262 261 260 259 259 259 258 258 258 255 256 256 256
274 283 288 292 294 296 296 296 297 297 297 297 296 294 295 295 294 293 292 291 289 288 285 283 281 279 277 274 272 268 265 263 261 260 258 258 258 259 259 258 258 258 258 255
282 289 294 297 299 300 299 300 301 302 301 301 300 299 299 299 299 298 298 297 296 294 291 288 285 282 279 276 274 272 268 265 262 259 257 256 256 257 258 258 258 257 258 259
291 297 301 303 304 305 306 307 308 308 306 305 305 302 303 303 303 304 304 305 304 302 300 298 293 290 286 281 277 275 272 268 264 260 257 255 255 255 255 256 256 256 257 258
302 306 308 310 312 313 314 314 316 316 315 313 312 309 310 311 311 312 312 312 312 311 309 307 302 297 292 288 283 280 277 272 266 260 256 254 254 254 253 253 253 252 253 254
314 317 320 322 322 322 322 325 328 329 328 324 322 320 321 323 324 323 322 323 324 322 321 320 318 312 304 296 290 287 282 276 267 259 256 254 251 250 250 249 248 247 248 249
334 336 336 335 334 335 335 334 335 334 332 331 332 334 335 336 339 339 339 341 340 337 338 336 337 334 329 317 307 304 298 287 271 261 255 250 245 243 244 243 243 241 242 243
354 350 348 347 346 346 345 344 342 339 338 339 341 343 344 348 353 356 356 355 354 355 356 356 354 353 354 350 344 342 332 311 283 265 258 247 238 235 236 239 239 239 238 240
7 360 358 358 357 357 357 356 355 355 353 354 352 354 357 0 5 10 11 12 15 19 16 14 13 16 16 10 5 9 13 10 346 293 260 239 230 230 235 238 238 237 237 239
20 12 10 10 9 9 9 9 9 7 6 7 7 9 12 14 18 20 20 23 29 31 32 31 30 32 30 31 35 33 32 30 33 37 43 215 227 230 236 240 241 241 240 240
31 24 21 19 17 17 17 17 16 16 20 23 24 24 24 28 30 32 34 36 39 40 40 40 41 43 44 45 44 44 47 48 51 54 63 78 115 202 234 238 242 243 244 245
38 33 27 25 23 23 24 23 24 27 30 32 33 36 38 40 40 42 42 43 46 48 47 47 49 50 50 51 52 54 54 54 54 55 56 63 62 55 30 264 252 251 248 246
42 37 32 29 28 29 29 30 32 34 36 37 41 44 45 45 46 47 47 50 53 54 52 52 52 52 53 55 54 53 52 52 53 53 53 55 60 61 55 47 36 333 256 245
43 39 34 33 33 33 33 34 36 38 39 42 44 47 49 50 50 50 52 55 56 56 57 56 54 55 55 54 52 51 50 49 50 51 51 52 53 56 53 47 44 35 12 318
43 39 35 35 34 35 36 37 38 40 42 45 48 51 52 53 53 54 56 58 58 59 58 57 57 57 55 53 51 49 50 51 51 51 52 52 52 51 47 42 38 33 22 7
43 39 36 35 35 35 37 37 40 42 44 48 50 52 55 56 56 57 58 59 59 59 58 57 57 56 54 53 51 50 51 52 52 52 51 50 49 48 46 42 38 33 26 18
41 38 36 35 34 35 35 38 41 43 45 49 51 51 54 56 56 57 57 58 58 59 59 58 57 55 53 51 50 50 51 51 52 51 50 49 47 44 41 37 34 30 26 21
37 35 34 33 33 34 35 37 39 41 44 46 49 51 54 56 56 56 56 56 57 58 57 56 55 53 52 51 50 49 50 50 49 48 46 43 40 38 35 32 30 27 24 20
27 28 29 30 30 30 32 34 37 40 43 43 46 49 53 55 55 54 54 54 54 55 54 52 51 51 50 49 48 47 47 46 44 43 41 39 36 34 32 30 28 27 25 22
8 13 17 21 24 26 27 29 32 36 37 40 42 45 48 50 51 51 51 51 50 51 50 48 47 47 47 46 45 44 43 41 39 39 37 35 34 32 31 29 28 27 25 24
328 346 357 5 11 17 19 23 27 31 33 35 38 41 45 48 49 49 47 47 46 47 46 45 44 44 44 44 44 42 40 38 37 37 35 34 33 32 30 29 28 28 27 27
294 309 322 338 352 1 7 13 18 22 26 30 33 35 38 41 41 41 40 39 39 40 39 39 39 39 40 40 40 39 38 37 37 36 36 35 34 33 32 31 30 30 31 31
276 284 293 304 316 330 342 351 0 7 12 17 20 22 23 25 26 29 29 28 28 29 31 32 35 37 38 39 39 39 37 36 36 36 35 35 35 35 34 33 33 34 35 36
266 270 277 283 290 298 310 320 329 339 348 354 360 3 6 8 9 11 14 18 20 21 23 26 30 33 35 37 38 37 37 36 36 36 36 36 36 36 36 36 36 37 38 39
261 264 268 272 277 281 286 293 299 307 316 324 332 338 342 345 349 354 358 2 7 12 16 19 21 25 27 30 32 34 35 35 35 36 36 37 37 37 38 39 40 40 42 43
Height
5911 5911 5909 5908 5906 5904 5901 5898 5895 5892 5889 5886 5883 5880 5878 5875 5873 5870 5867 5865 5862 5860 5858 5856 5854 5852 5851 5851 5851 5851 5851 5852 5853 5853 5854 5855 5856 5857 5858 5859 5861 5862 5863 5865
5908 5907 5905 5903 5901 5898 5896 5893 5889 5887 5884 5881 5877 5874 5872 5868 5865 5862 5859 5856 5853 5851 5848 5845 5843 5841 5840 5839 5838 5839 5839 5840 5841 5842 5843 5845 5846 5847 5849 5851 5853 5854 5856 5858
5905 5904 5901 5899 5897 5894 5891 5888 5884 5881 5878 5875 5872 5869 5865 5862 5858 5855 5851 5848 5844 5841 5838 5835 5833 5830 5828 5827 5826 5826 5827 5827 5829 5830 5832 5834 5835 5837 5839 5841 5843 5845 5848 5850
5902 5900 5898 5895 5892 5889 5886 5883 5880 5876 5873 5869 5867 5862 5859 5855 5851 5847 5843 5840 5836 5832 5829 5826 5823 5820 5818 5817 5816 5815 5814 5815 5816 5817 5819 5822 5824 5826 5828 5831 5833 5836 5839 5841
5899 5897 5894 5891 5889 5885 5882 5879 5875 5871 5868 5864 5861 5857 5854 5849 5845 5841 5837 5833 5829 5825 5821 5817 5814 5811 5809 5807 5806 5804 5803 5803 5803 5805 5807 5810 5813 5815 5818 5821 5824 5826 5829 5832
5896 5894 5891 5888 5885 5882 5878 5875 5871 5867 5864 5860 5856 5853 5848 5844 5840 5836 5832 5828 5823 5819 5815 5811 5807 5804 5802 5799 5797 5795 5794 5793 5793 5794 5796 5799 5802 5805 5808 5811 5814 5817 5820 5823
5894 5892 5889 5885 5882 5879 5875 5872 5868 5864 5860 5856 5852 5848 5845 5840 5836 5832 5828 5824 5819 5815 5811 5807 5803 5799 5796 5793 5790 5788 5787 5785 5785 5786 5788 5790 5793 5796 5799 5802 5805 5808 5812 5815
5892 5890 5886 5883 5880 5876 5872 5869 5867 5863 5858 5853 5849 5845 5842 5838 5833 5829 5825 5821 5816 5812 5808 5804 5800 5796 5793 5790 5787 5784 5782 5780 5780 5780 5781 5783 5785 5789 5792 5794 5797 5800 5803 5806
5891 5888 5885 5881 5878 5874 5871 5867 5864 5861 5856 5852 5848 5844 5840 5836 5832 5828 5823 5819 5815 5811 5807 5803 5799 5795 5792 5789 5786 5783 5780 5778 5777 5777 5778 5779 5781 5783 5786 5788 5790 5793 5796 5798
5890 5888 5884 5881 5877 5873 5870 5866 5862 5858 5854 5850 5847 5843 5840 5835 5831 5827 5823 5819 5815 5811 5807 5804 5800 5796 5792 5789 5786 5783 5781 5778 5777 5776 5776 5777 5778 5779 5782 5783 5785 5788 5790 5792
5890 5887 5884 5880 5877 5873 5869 5866 5861 5858 5854 5850 5847 5845 5840 5836 5832 5828 5824 5820 5816 5812 5809 5805 5801 5798 5794 5791 5788 5785 5783 5780 5778 5777 5776 5776 5777 5778 5780 5781 5782 5783 5785 5787
5890 5887 5884 5881 5877 5873 5869 5866 5862 5859 5854 5850 5847 5847 5840 5837 5833 5830 5826 5822 5818 5815 5811 5808 5804 5800 5797 5794 5791 5788 5786 5783 5781 5780 5778 5778 5778 5778 5778 5779 5779 5780 5782 5783
5890 5888 5885 5882 5880 5875 5870 5866 5862 5859 5856 5852 5849 5849 5842 5839 5835 5832 5828 5825 5821 5818 5815 5811 5808 5804 5801 5798 5795 5792 5790 5787 5785 5783 5782 5780 5780 5779 5779 5778 5778 5779 5779 5779
5891 5889 5887 5884 5880 5875 5872 5868 5864 5861 5858 5854 5851 5849 5845 5841 5838 5835 5831 5828 5825 5821 5818 5815 5812 5809 5806 5803 5800 5797 5794 5792 5789 5787 5785 5783 5782 5781 5780 5779 5778 5778 5777 5777
5892 5890 5887 5884 5880 5877 5874 5870 5867 5863 5860 5857 5854 5851 5848 5845 5841 5838 5835 5831 5828 5825 5822 5819 5816 5813 5810 5807 5804 5802 5799 5796 5793 5791 5788 5787 5785 5783 5782 5781 5779 5778 5777 5776
5894 5892 5889 5886 5882 5879 5876 5872 5869 5866 5863 5860 5857 5854 5851 5848 5845 5842 5839 5836 5833 5830 5827 5824 5821 5818 5815 5812 5809 5806 5803 5800 5798 5795 5793 5791 5788 5786 5784 5782 5781 5779 5777 5776
5895 5893 5891 5888 5884 5881 5878 5875 5872 5869 5866 5863 5860 5858 5854 5852 5849 5846 5843 5840 5837 5835 5832 5829 5826 5823 5820 5817 5814 5811 5808 5805 5802 5799 5797 5794 5792 5789 5787 5785 5782 5780 5778 5775
5897 5895 5892 5890 5887 5884 5883 5877 5875 5871 5868 5866 5863 5861 5858 5855 5853 5850 5847 5845 5842 5839 5836 5834 5831 5828 5825 5822 5819 5816 5812 5809 5807 5804 5801 5798 5796 5793 5790 5787 5784 5781 5778 5775
5898 5896 5894 5891 5888 5886 5884 5880 5877 5874 5871 5869 5866 5864 5861 5859 5856 5854 5851 5849 5846 5843 5841 5838 5835 5832 5830 5826 5823 5820 5817 5814 5811 5808 5805 5802 5799 5796 5792 5789 5785 5782 5779 5775
5898 5897 5895 5893 5890 5888 5887 5883 5879 5878 5874 5872 5869 5866 5864 5862 5860 5858 5855 5852 5850 5847 5845 5842 5839 5837 5834 5831 5828 5825 5822 5819 5815 5812 5809 5806 5802 5799 5795 5791 5787 5784 5780 5776
5899 5897 5895 5893 5891 5890 5887 5884 5882 5880 5878 5874 5871 5869 5867 5864 5863 5861 5858 5855 5853 5850 5848 5845 5843 5840 5838 5835 5832 5829 5826 5822 5819 5816 5812 5809 5805 5801 5798 5794 5790 5786 5782 5778
5898 5897 5895 5894 5892 5892 5888 5885 5884 5882 5878 5876 5873 5871 5869 5867 5865 5863 5860 5858 5856 5853 5851 5848 5846 5844 5841 5838 5835 5833 5829 5826 5822 5819 5816 5812 5808 5804 5800 5796 5792 5788 5784 5780
5896 5896 5895 5894 5894 5891 5888 5886 5884 5882 5880 5877 5875 5873 5871 5869 5867 5865 5863 5861 5858 5856 5854 5851 5849 5846 5844 5841 5838 5836 5833 5829 5826 5822 5819 5815 5811 5807 5803 5799 5795 5791 5787 5782
5894 5893 5893 5892 5891 5889 5887 5886 5884 5882 5880 5878 5876 5874 5872 5870 5868 5866 5864 5862 5860 5858 5856 5853 5851 5848 5846 5843 5841 5838 5835 5832 5829 5825 5822 5818 5814 5811 5807 5803 5799 5795 5790 5786
5891 5891 5890 5889 5889 5887 5886 5885 5883 5882 5880 5878 5877 5875 5873 5871 5869 5867 5865 5863 5861 5859 5857 5855 5853 5850 5848 5845 5843 5840 5838 5835 5832 5828 5825 5821 5818 5814 5810 5806 5803 5799 5795 5790
5888 5888 5887 5887 5886 5885 5885 5883 5882 5881 5879 5878 5876 5875 5873 5871 5869 5868 5866 5864 5862 5860 5858 5856 5854 5852 5849 5847 5845 5842 5840 5837 5835 5831 5828 5825 5821 5818 5814 5810 5807 5803 5799 5795